Tracking 19489 objects as of 22-Jan-2019
HD Live streaming from Space Station
objects crossing your sky now

SBS 1

Track SBS 1 now!
SBS 1 is classified as:


NORAD ID: 12065
Int'l Code: 1980-091A
Perigee: 35,904.4 km
Apogee: 35,939.8 km
Inclination: 14.2 °
Period: 1,442.7 minutes
Semi major axis: 42293 km
RCS: 7.914 m2 (large)
Launch date: November 15, 1980
Source: United States (US)
Launch site: AIR FORCE EASTERN TEST RANGE (AFETR)
aabbcc
Your satellite tracking list
Your tracking list is empty




NASA's NSSDC Master Catalog

Two Line Element Set (TLE):
1 12065U 80091A   19021.41025434 -.00000118 +00000-0 +00000-0 0  9999
2 12065 014.2476 341.0158 0004185 052.3531 141.5965 00.99815658019483
Source of the keplerian elements: AFSPC